Regional Weather Roundup
Issued by NWS

Home | Current Version | Previous Version | Text Only | Print | Product List | Glossary On
Versions: 1 2 3 4 5 6 7 8 9 10 11 12 13 14 15 16 17 18 19 20 21 22 23 24 25 26 27 28 29 30 31 32 33 34 35 36 37 38 39 40 41 42 43 44 45 46 47 48 49 50
000
ASUS44 KLIX 290011
RWRLA
LOUISIANA WEATHER ROUNDUP
NATIONAL WEATHER SERVICE NEW ORLEANS LA
700 PM CDT THU MAY 28 2015

NOTE: "FAIR" INDICATES FEW OR NO CLOUDS BELOW 12,000 FEET WITH NO
      SIGNIFICANT WEATHER AND/OR OBSTRUCTIONS TO VISIBILITY.
      SKY/WX - SKY CONDITION AND SIGNIFICANT WEATHER.
      TMP - AIR TEMPERATURE.    DP   - DEWPOINT TEMPERATURE.
      RH  - RELATIVE HUMIDITY.  PRES - PRESSURE.
      HX  - HEAT INDEX.         WCI  - WIND CHILL INDEX.

*  THESE STATIONS ARE NOT NWS OR FAA STATIONS AND ARE NOT UNDER
   NWS QUALITY CONTROL.

LAZ040-048-061>063-065-066-069-290100-
SOUTHEAST LOUISIANA

CITY           SKY/WX    TMP DP  RH WIND       PRES   REMARKS
N.O. AUDUBON     N/A     87  73  63 MISG        N/A
6HR MIN TEMP:  85; 6HR MAX TEMP:  93; 6HR PCP:  0.01;

N.O. INTL ARPT MOSUNNY   86  67  52 SE5       30.03F
6HR MIN TEMP:  84; 6HR MAX TEMP:  89;

N.O. LAKEFRONT SUNNY     86  68  54 SE13      30.04S
6HR MIN TEMP:  86; 6HR MAX TEMP:  90;

SLIDELL        PTCLDY    85  73  67 SE7       30.03F
6HR MIN TEMP:  85; 6HR MAX TEMP:  89;

BATON ROUGE    CLOUDY    88  69  53 CALM      30.03S
6HR MIN TEMP:  85; 6HR MAX TEMP:  91;

BOOTHVILLE     PTCLDY    79  71  76 SE7       30.07S
6HR MIN TEMP:  76; 6HR MAX TEMP:  83; 6HR PCP: TRACE;

BELLE CHASSE   MOCLDY    82  71  69 SE6       30.04S
6HR MIN TEMP:  81; 6HR MAX TEMP:  89;

BOGALUSA*        N/A     85  69  59 S6        30.05S
6HR MIN TEMP:  85; 6HR MAX TEMP:  91;

GALLIANO*      PTCLDY    82  72  71 CALM      30.04F
6HR MIN TEMP:  81; 6HR MAX TEMP:  89; 6HR PCP:  0.03;

NEW ROADS*     FAIR      85  70  60 N5        30.03F
6HR MIN TEMP:  83; 6HR MAX TEMP:  88;

GONZALES*      FAIR      83  74  74 CALM      30.02S
6HR MIN TEMP:  83; 6HR MAX TEMP:  89;

HAMMOND*       SUNNY     88  64  45 CALM      30.05S
HOUMA*         MOSUNNY   81  73  78 CALM      30.04F
PORT FOURCHON* PTCLDY    82  73  74 SE12      30.06S

$$

LAZ041-044-053-054-290100-
SOUTHWEST LOUISIANA

CITY           SKY/WX    TMP DP  RH WIND       PRES   REMARKS
LAKE CHARLES   SUNNY     83  73  72 S6        30.00F
6HR MIN TEMP:  83; 6HR MAX TEMP:  89;

LAFAYETTE      PTSUNNY   85  71  63 E3        30.02S
6HR MIN TEMP:  85; 6HR MAX TEMP:  90;

PATTERSON      SUNNY     82  72  69 SW8       30.04F
6HR MIN TEMP:  82; 6HR MAX TEMP:  88;

SALT POINT       N/A     84  73  69 VRB3      30.02S
6HR MIN TEMP:  82; 6HR MAX TEMP:  87;

NEW IBERIA     SUNNY     85  73  67 S6        30.02F
6HR MIN TEMP:  85; 6HR MAX TEMP:  90;

CHENAULT AIRPK MOSUNNY   82  73  74 S9        30.01F

$$

LAZ027-028-290100-
CENTRAL LOUISIANA

CITY           SKY/WX    TMP DP  RH WIND       PRES   REMARKS
FORT POLK      PTSUNNY   87  70  56 SE7       30.00S
6HR MIN TEMP:  85; 6HR MAX TEMP:  89;

ALEXANDRIA INT MOSUNNY   84  70  62 E5        30.01R
6HR MIN TEMP:  83; 6HR MAX TEMP:  91;

ALEXANDRIA     MOSUNNY   80  73  79 CALM      30.04R
6HR MIN TEMP:  80; 6HR MAX TEMP:  90;


$$

LAZ001-002-290100-
NORTHWEST LOUISIANA

CITY           SKY/WX    TMP DP  RH WIND       PRES   REMARKS
SHREVEPORT     LGT RAIN  78  75  90 E7        30.00S FOG
6HR MIN TEMP:  77; 6HR MAX TEMP:  90; 6HR PCP:  0.29;

BARKSDALE AFB  CLOUDY    78  69  73 E7        30.01R
6HR MIN TEMP:  77; 6HR MAX TEMP:  85; 6HR PCP:  0.03;

DTN SHREVEPORT PTSUNNY   77  70  79 NE6       30.01S
6HR MIN TEMP:  76; 6HR MAX TEMP:  86;


$$

LAZ014-016-290100-
NORTHEAST LOUISIANA

CITY           SKY/WX    TMP DP  RH WIND       PRES   REMARKS
MONROE         PTSUNNY   82  73  74 CALM      30.05R
6HR MIN TEMP:  81; 6HR MAX TEMP:  88;

TALLULAH       SUNNY     84  67  56 N5        30.05R
6HR MIN TEMP:  84; 6HR MAX TEMP:  88;


$$



USA.gov is the U.S. government's official web portal to all federal, state and local government web resources and services.